Wind_Speed
77 77 76 73 71 72 74 78 79 79 81 82 82 82 82 82 82 81 79 77 75 71 67 65 65 64 62 60 60 60 58 57 57 58 58 56 55 54 53 53 54 54
79 77 76 75 73 72 72 75 77 77 79 79 80 81 82 83 82 80 78 76 73 70 67 66 66 65 63 60 59 58 56 54 53 54 54 53 52 52 51 52 53 53
82 79 76 74 72 71 71 72 74 76 76 77 77 77 79 81 83 82 80 76 73 70 68 68 67 67 65 62 60 58 56 53 52 52 53 53 52 51 50 50 52 52
78 78 78 75 73 72 71 71 72 74 75 76 77 76 76 77 79 80 79 77 75 73 71 70 69 69 68 66 63 60 59 57 54 52 52 52 52 51 50 51 52 52
62 65 68 71 73 73 73 71 72 74 75 77 78 77 75 75 75 75 75 75 75 75 75 74 72 71 71 71 68 65 63 62 60 56 53 51 51 51 52 52 51 52
40 45 50 56 62 67 70 70 71 72 74 76 77 77 76 75 75 74 73 73 73 73 75 77 76 75 74 75 74 70 66 64 63 60 55 52 51 52 53 53 51 51
28 31 35 40 47 55 62 66 68 70 71 73 74 75 76 75 75 75 75 75 74 73 73 74 76 77 77 77 76 73 69 66 64 62 58 54 52 51 52 52 52 51
27 28 30 33 38 44 51 58 63 67 70 71 72 73 75 76 77 77 78 78 77 76 74 73 74 75 76 77 75 73 71 69 67 64 60 56 53 51 51 52 54 52
30 31 32 33 34 36 41 47 53 58 63 68 71 74 76 78 80 80 80 80 80 79 78 76 74 73 74 75 74 73 72 70 68 65 62 58 54 53 52 53 54 52
31 32 33 33 33 34 35 38 42 47 52 58 64 69 74 78 81 83 84 84 83 83 81 80 78 75 73 73 73 73 72 70 68 67 64 60 56 55 55 55 55 53
31 31 32 32 33 34 36 37 39 41 45 49 53 58 63 68 73 77 80 83 84 84 85 84 83 80 76 73 72 71 71 70 68 68 67 63 59 58 57 57 57 55
32 32 32 33 35 36 38 39 40 42 43 46 49 52 56 60 63 67 70 74 76 79 82 84 85 84 81 76 72 71 70 69 68 68 68 66 62 61 60 59 58 57
35 35 35 36 37 39 40 42 43 43 44 45 48 50 53 57 60 64 66 68 69 71 74 77 79 82 83 81 76 72 70 69 69 68 68 68 66 64 63 61 59 58
37 37 37 38 40 41 42 44 45 45 46 46 47 49 51 54 57 60 62 64 65 66 67 69 71 74 79 82 79 74 71 70 69 69 68 68 68 66 63 61 59 58
40 39 39 41 42 44 45 46 46 47 47 46 46 47 49 50 52 53 54 55 57 59 61 63 65 66 71 79 80 76 72 70 69 69 69 69 69 66 62 59 58 57
41 41 41 42 44 46 47 48 48 48 47 45 45 46 46 47 47 47 47 48 49 51 53 54 57 59 63 71 77 75 72 71 69 68 68 68 68 65 61 58 57 57
42 41 41 43 45 47 49 50 49 49 47 44 43 43 43 43 43 42 41 40 39 40 42 44 47 50 54 62 70 71 68 69 70 68 66 65 65 63 61 58 56 56
41 41 41 42 45 48 50 50 49 48 45 43 41 40 39 38 36 34 31 29 29 31 33 35 36 40 45 51 59 62 62 63 67 68 66 63 61 60 60 59 56 55
41 41 41 42 45 48 50 49 47 46 43 40 38 37 35 32 30 28 26 26 27 29 30 29 27 29 33 38 46 54 56 55 57 61 64 63 59 57 57 57 55 55
40 40 41 43 45 48 49 47 45 43 39 36 35 34 31 28 28 28 28 27 26 28 28 23 20 21 26 32 40 47 51 50 48 49 54 59 60 57 55 55 55 55
39 39 41 43 46 48 46 44 43 40 36 33 32 30 27 27 28 28 28 26 24 25 25 20 18 21 25 30 36 41 46 47 44 44 48 52 55 56 54 54 55 55
37 38 41 43 45 46 43 41 39 36 32 29 28 27 26 26 27 26 27 25 21 21 22 19 19 23 26 29 32 36 40 41 40 43 46 46 49 53 53 53 54 52
36 38 40 43 44 44 41 37 33 30 27 25 25 25 25 25 24 25 26 21 17 19 22 21 21 23 25 28 30 32 34 33 33 38 43 44 47 51 51 51 51 49
36 38 40 41 42 40 36 30 26 24 23 23 23 24 24 24 23 24 25 19 14 16 20 21 21 23 24 25 26 28 28 26 28 32 37 40 44 46 46 46 46 44
35 37 40 41 39 34 29 24 21 20 19 20 21 22 23 22 21 24 23 17 13 15 18 21 21 22 22 22 22 23 23 23 26 29 32 35 39 41 42 42 40 39
35 37 39 37 32 25 20 18 17 16 16 17 18 18 19 19 19 22 21 15 14 15 18 19 19 20 20 20 20 21 22 24 27 30 32 34 36 38 38 37 36 36
Wind_Direction
265 265 264 264 262 261 260 261 263 265 262 259 258 259 260 261 261 261 262 262 263 264 266 267 267 266 267 267 267 268 268 267 266 264 262 261 261 261 261 261 260 259
265 265 265 265 264 262 260 259 260 262 261 257 255 255 257 259 260 260 260 260 260 261 264 265 264 263 264 265 264 264 265 265 264 262 260 258 258 258 258 258 259 259
266 266 265 264 263 263 262 260 259 259 260 260 258 255 254 256 257 258 258 258 258 261 264 264 261 260 260 262 262 261 262 262 262 262 261 259 258 258 258 258 258 259
268 268 266 263 262 262 262 261 260 259 259 261 261 259 256 254 254 254 255 257 259 262 265 264 261 259 259 260 260 259 259 260 261 261 261 261 259 259 259 259 258 258
271 269 267 264 261 261 262 262 261 260 259 260 261 261 259 257 254 253 254 255 257 259 261 263 261 259 259 259 260 259 258 259 260 259 259 260 258 258 258 258 258 258
277 273 269 265 262 261 262 262 262 261 260 260 261 261 260 259 257 256 255 255 255 255 257 258 259 259 258 259 260 259 258 258 259 259 257 256 256 256 256 257 258 258
288 281 275 270 265 262 261 262 262 263 262 262 261 262 262 261 259 258 258 257 256 254 254 255 256 257 257 257 258 258 257 257 258 259 256 252 252 253 253 255 257 257
299 294 287 279 272 266 263 262 262 263 263 263 262 262 262 262 261 260 259 258 257 255 253 253 253 253 254 254 255 255 256 256 256 257 255 250 249 250 251 253 254 255
303 299 293 287 282 277 271 267 265 264 264 264 262 261 261 260 260 259 259 258 256 254 253 252 252 251 251 251 252 253 254 254 254 255 254 250 247 247 248 250 252 253
302 298 295 294 292 290 287 282 276 272 269 267 264 262 261 260 259 258 258 256 255 253 251 250 250 251 250 249 250 251 252 252 253 254 254 250 247 246 246 248 250 252
303 301 300 299 298 297 296 294 290 285 279 274 271 267 264 263 261 260 259 257 255 253 250 248 248 249 249 248 248 249 250 250 251 253 254 251 248 246 245 246 248 250
307 307 307 305 303 301 300 298 296 293 288 282 278 274 271 268 265 263 261 259 257 254 251 249 246 245 245 245 246 246 248 248 249 251 253 253 251 248 245 245 247 248
310 310 310 309 306 304 302 301 299 296 292 287 282 278 274 271 268 266 264 262 260 257 254 251 247 244 241 240 242 243 244 245 246 248 251 253 254 251 246 244 246 247
310 310 310 309 307 305 304 302 300 297 294 290 286 281 277 273 269 267 265 264 262 260 257 254 250 246 240 236 236 238 239 241 242 244 247 250 252 251 246 243 244 246
310 310 309 307 306 306 305 303 301 299 297 293 289 284 280 276 272 270 268 266 265 263 260 256 252 248 241 234 231 232 234 236 239 241 242 245 249 249 244 242 244 246
311 310 308 306 306 306 305 305 303 301 299 295 290 286 282 278 276 274 272 271 269 266 264 260 254 250 243 235 230 229 230 231 233 237 239 240 244 245 243 244 245 246
312 310 307 305 305 305 305 305 304 302 299 295 290 286 282 279 277 276 275 274 272 268 265 262 257 251 244 236 230 230 231 230 230 232 234 236 238 240 241 242 245 247
312 310 306 304 304 304 304 305 304 302 299 294 289 285 282 279 276 275 273 272 272 272 270 266 259 251 244 236 230 228 230 232 232 232 232 233 235 237 237 238 242 246
311 308 305 304 303 303 304 304 303 300 296 291 287 284 279 275 273 271 267 264 269 274 275 272 260 247 240 234 227 226 227 230 232 234 233 232 233 236 237 237 239 244
309 307 305 304 304 304 305 304 302 298 293 287 284 282 277 271 272 271 263 259 264 270 272 269 254 238 231 227 225 225 226 227 229 232 233 231 231 234 237 238 239 243
307 305 304 304 305 306 306 304 300 296 290 284 281 280 275 271 274 270 257 255 264 268 265 257 240 228 223 222 223 224 225 226 227 229 231 229 229 232 235 237 240 243
306 304 305 306 307 307 306 302 298 294 288 283 279 278 276 276 275 264 250 253 265 264 254 242 227 222 220 220 222 223 224 226 227 229 229 226 227 230 234 238 241 243
305 305 306 308 308 307 305 301 296 293 289 284 280 279 278 277 272 257 247 253 263 257 246 233 222 219 220 220 219 220 223 224 224 228 228 225 227 231 235 238 241 241
306 308 310 310 309 307 305 301 296 294 291 286 282 280 277 277 268 249 244 251 256 248 238 227 220 219 218 217 216 217 221 219 218 225 228 227 229 233 236 239 241 242
310 312 313 312 311 309 305 302 298 296 293 288 286 281 278 277 261 241 240 246 240 233 229 223 221 220 216 212 212 216 218 212 213 220 223 224 228 232 235 240 243 245
315 316 316 315 315 314 311 308 305 301 297 294 292 287 282 274 250 234 237 231 216 225 233 226 217 212 209 208 212 218 220 216 214 217 219 222 227 230 234 241 246 248
Height
5406 5406 5408 5410 5411 5413 5414 5416 5417 5419 5420 5420 5421 5422 5423 5423 5423 5424 5426 5427 5428 5429 5430 5431 5433 5434 5436 5437 5437 5438 5439 5440 5441 5441 5442 5444 5445 5446 5448 5449 5449 5450
5392 5393 5394 5396 5398 5400 5401 5402 5404 5406 5407 5407 5408 5409 5411 5411 5412 5412 5414 5415 5416 5418 5419 5420 5422 5424 5426 5428 5428 5429 5430 5431 5433 5433 5433 5434 5436 5437 5439 5440 5441 5441
5378 5380 5382 5383 5385 5387 5388 5389 5391 5393 5394 5395 5396 5396 5398 5399 5400 5401 5402 5403 5405 5406 5408 5409 5411 5413 5415 5418 5419 5421 5422 5423 5425 5425 5425 5426 5427 5428 5430 5431 5432 5433
5365 5366 5368 5370 5373 5375 5376 5377 5379 5379 5380 5383 5384 5384 5385 5386 5387 5389 5390 5391 5393 5395 5396 5398 5401 5403 5405 5407 5409 5412 5414 5415 5416 5416 5417 5418 5419 5420 5422 5422 5423 5425
5354 5355 5356 5358 5360 5362 5364 5366 5367 5367 5368 5370 5372 5373 5374 5375 5375 5377 5379 5379 5381 5383 5385 5387 5390 5392 5394 5396 5398 5401 5404 5405 5407 5408 5409 5410 5412 5413 5414 5414 5416 5417
5347 5346 5346 5347 5348 5350 5352 5354 5354 5355 5356 5358 5360 5361 5362 5362 5364 5365 5367 5368 5369 5371 5373 5376 5378 5381 5383 5385 5387 5391 5394 5396 5397 5398 5400 5402 5403 5405 5406 5407 5409 5410
5340 5340 5339 5338 5338 5338 5340 5341 5342 5343 5344 5346 5348 5349 5349 5350 5352 5354 5355 5356 5358 5360 5362 5364 5366 5369 5371 5373 5376 5380 5383 5386 5387 5389 5391 5393 5394 5396 5398 5399 5401 5402
5334 5333 5332 5330 5330 5329 5330 5331 5332 5332 5333 5335 5337 5338 5337 5338 5340 5342 5343 5345 5347 5349 5350 5351 5354 5357 5359 5361 5365 5369 5372 5375 5378 5379 5381 5383 5385 5388 5390 5392 5393 5394
5327 5326 5325 5323 5323 5322 5322 5322 5322 5323 5323 5323 5325 5326 5326 5327 5328 5329 5331 5332 5334 5337 5338 5339 5341 5344 5347 5350 5353 5358 5361 5365 5368 5370 5371 5374 5377 5379 5381 5383 5385 5387
5322 5320 5318 5317 5316 5315 5315 5314 5313 5313 5312 5311 5312 5312 5313 5314 5314 5315 5316 5318 5320 5323 5325 5326 5328 5331 5335 5338 5342 5346 5350 5354 5357 5359 5362 5365 5368 5370 5372 5374 5376 5379
5316 5315 5313 5312 5310 5309 5307 5306 5305 5303 5302 5300 5299 5299 5299 5299 5299 5299 5300 5301 5304 5307 5309 5312 5314 5318 5322 5326 5330 5334 5339 5343 5347 5349 5352 5355 5358 5361 5363 5366 5368 5371
5310 5308 5307 5305 5304 5302 5300 5298 5296 5295 5293 5291 5289 5288 5287 5286 5285 5285 5285 5285 5287 5290 5292 5296 5299 5303 5308 5313 5318 5322 5327 5332 5336 5339 5341 5345 5349 5351 5354 5357 5360 5362
5303 5301 5300 5298 5296 5294 5292 5290 5288 5286 5284 5282 5280 5278 5277 5275 5274 5272 5272 5272 5273 5274 5276 5279 5283 5288 5293 5299 5305 5310 5315 5321 5325 5329 5332 5335 5339 5342 5345 5348 5351 5354
5296 5294 5293 5291 5289 5287 5285 5282 5280 5277 5275 5272 5270 5268 5266 5264 5262 5261 5260 5260 5260 5261 5262 5264 5268 5273 5279 5285 5291 5297 5303 5309 5314 5318 5322 5326 5329 5333 5336 5339 5342 5345
5289 5288 5286 5284 5282 5279 5277 5274 5272 5268 5266 5263 5260 5258 5255 5253 5251 5250 5250 5249 5249 5249 5251 5252 5255 5260 5266 5272 5278 5284 5291 5298 5303 5307 5312 5317 5321 5324 5328 5331 5334 5337
5283 5281 5279 5277 5274 5272 5269 5266 5263 5260 5257 5254 5251 5248 5245 5243 5242 5241 5240 5240 5240 5240 5240 5242 5244 5248 5253 5259 5265 5272 5279 5285 5291 5296 5301 5307 5312 5316 5320 5323 5326 5329
5277 5275 5272 5270 5267 5264 5260 5257 5254 5251 5248 5245 5242 5239 5237 5235 5234 5233 5233 5232 5231 5231 5232 5233 5235 5238 5241 5247 5254 5261 5267 5274 5280 5285 5291 5297 5303 5308 5313 5316 5319 5321
5271 5269 5266 5263 5260 5256 5253 5249 5246 5242 5239 5236 5233 5231 5230 5229 5228 5227 5226 5226 5225 5225 5226 5226 5227 5229 5232 5237 5245 5252 5259 5265 5270 5276 5282 5289 5295 5300 5304 5308 5311 5313
5265 5262 5259 5256 5252 5248 5245 5241 5238 5234 5231 5228 5226 5225 5224 5223 5222 5222 5221 5221 5221 5221 5221 5220 5221 5223 5226 5232 5238 5245 5252 5258 5264 5268 5274 5281 5288 5293 5296 5300 5303 5306
5258 5255 5252 5249 5245 5241 5237 5233 5230 5226 5223 5221 5220 5219 5219 5218 5218 5217 5217 5217 5217 5217 5216 5217 5218 5220 5223 5228 5234 5240 5246 5253 5258 5263 5267 5273 5280 5286 5290 5293 5296 5299
5251 5248 5245 5242 5238 5234 5230 5226 5222 5219 5217 5215 5214 5214 5214 5214 5213 5212 5212 5212 5213 5213 5213 5214 5216 5218 5222 5226 5231 5236 5242 5248 5253 5257 5261 5267 5274 5279 5283 5287 5289 5292
5244 5242 5239 5235 5231 5227 5224 5220 5215 5212 5211 5210 5210 5210 5209 5209 5209 5208 5208 5209 5210 5210 5210 5212 5214 5217 5220 5224 5229 5234 5239 5244 5248 5251 5257 5263 5268 5272 5277 5280 5283 5286
5238 5235 5233 5229 5225 5221 5217 5213 5210 5207 5206 5206 5206 5206 5205 5205 5204 5204 5204 5205 5206 5207 5208 5210 5213 5215 5218 5222 5226 5231 5236 5240 5244 5248 5253 5258 5262 5266 5271 5274 5278 5280
5232 5230 5226 5223 5219 5215 5211 5208 5205 5203 5202 5202 5201 5201 5201 5200 5200 5200 5201 5202 5203 5204 5206 5208 5211 5214 5217 5221 5224 5229 5233 5236 5241 5245 5249 5253 5257 5262 5266 5269 5272 5275
5227 5224 5221 5217 5213 5209 5205 5203 5201 5200 5199 5198 5197 5197 5197 5196 5196 5197 5198 5200 5201 5202 5204 5207 5209 5212 5216 5219 5223 5226 5230 5234 5238 5242 5245 5249 5253 5258 5261 5264 5267 5269
5222 5219 5215 5211 5208 5204 5201 5200 5198 5197 5196 5195 5194 5193 5193 5192 5193 5194 5196 5198 5199 5201 5203 5205 5207 5211 5214 5218 5221 5224 5228 5231 5235 5239 5241 5244 5249 5253 5256 5259 5262 5264